Time,TemperatureF,DewpointF,PressureIn,WindDirection,WindDirectionDegrees,WindSpeedMPH,WindSpeedGustMPH,Humidity,HourlyPrecipIn,Conditions,Clouds,dailyrainin,SoftwareType,DateUTC
2013-10-14 00:00:00,55.0,49.3,30.31,SSE,168,1.0,1.0,81,0.00,,FEW030,0.00,VWS V14.01,2013-10-14 04:00:00,
2013-10-14 00:01:00,55.0,49.3,30.31,SSE,168,0.0,1.0,81,0.00,,FEW030,0.00,VWS V14.01,2013-10-14 04:01:00,
2013-10-14 00:06:00,55.0,49.3,30.31,SSE,168,0.0,1.0,81,0.00,,FEW030,0.00,VWS V14.01,2013-10-14 04:06:00,
2013-10-14 00:11:00,54.6,49.2,30.31,SSE,168,0.0,1.0,82,0.00,,FEW030,0.00,VWS V14.01,2013-10-14 04:11:00,
2013-10-14 00:16:00,54.3,48.9,30.31,SSE,168,0.0,1.0,82,0.00,,FEW030,0.00,VWS V14.01,2013-10-14 04:16:00,
2013-10-14 00:21:00,54.1,49.1,30.31,SSE,168,0.0,1.0,83,0.00,,FEW030,0.00,VWS V14.01,2013-10-14 04:21:00,
2013-10-14 00:26:00,53.9,49.2,30.31,SSE,168,0.0,1.0,84,0.00,,FEW030,0.00,VWS V14.01,2013-10-14 04:26:00,
2013-10-14 00:31:00,53.8,49.1,30.31,SSE,168,0.0,0.0,84,0.00,,FEW030,0.00,VWS V14.01,2013-10-14 04:31:00,
2013-10-14 00:36:00,53.9,49.2,30.30,SSE,168,0.0,1.0,84,0.00,,FEW030,0.00,VWS V14.01,2013-10-14 04:36:00,
2013-10-14 00:41:00,53.9,49.2,30.30,SSE,168,0.0,1.0,84,0.00,,FEW030,0.00,VWS V14.01,2013-10-14 04:41:00,
2013-10-14 00:46:00,54.0,49.0,30.30,SSE,167,0.0,1.0,83,0.00,,FEW030,0.00,VWS V14.01,2013-10-14 04:46:00,
2013-10-14 00:51:00,53.9,48.9,30.30,SSE,168,0.0,1.0,83,0.00,,FEW030,0.00,VWS V14.01,2013-10-14 04:51:00,
2013-10-14 00:56:00,54.0,49.0,30.30,SSE,168,0.0,1.0,83,0.00,,FEW030,0.00,VWS V14.01,2013-10-14 04:56:00,
2013-10-14 01:01:00,54.0,49.0,30.29,South,169,0.0,0.0,83,0.00,,FEW031,0.00,VWS V14.01,2013-10-14 05:01:00,
2013-10-14 01:06:00,53.9,48.9,30.29,South,169,0.0,0.0,83,0.00,,FEW031,0.00,VWS V14.01,2013-10-14 05:06:00,
2013-10-14 01:11:00,53.9,48.9,30.30,SSE,168,0.0,1.0,83,0.00,,FEW031,0.00,VWS V14.01,2013-10-14 05:11:00,
2013-10-14 01:16:00,53.8,48.8,30.29,SSE,167,0.0,1.0,83,0.00,,FEW031,0.00,VWS V14.01,2013-10-14 05:16:00,
2013-10-14 01:21:00,53.7,48.7,30.29,SSE,168,0.0,1.0,83,0.00,,FEW031,0.00,VWS V14.01,2013-10-14 05:21:00,
2013-10-14 01:26:00,53.6,48.6,30.29,SSE,168,0.0,1.0,83,0.00,,FEW031,0.00,VWS V14.01,2013-10-14 05:26:00,
2013-10-14 01:31:00,53.6,48.6,30.29,SSE,167,0.0,0.0,83,0.00,,FEW031,0.00,VWS V14.01,2013-10-14 05:31:00,
2013-10-14 01:36:00,53.6,48.6,30.29,South,169,0.0,1.0,83,0.00,,FEW031,0.00,VWS V14.01,2013-10-14 05:36:00,
2013-10-14 01:41:00,53.6,48.6,30.29,SSE,167,0.0,2.0,83,0.00,,FEW031,0.00,VWS V14.01,2013-10-14 05:41:00,
2013-10-14 01:46:00,53.5,48.2,30.29,SSE,165,0.0,4.0,82,0.00,,FEW031,0.00,VWS V14.01,2013-10-14 05:46:00,
2013-10-14 01:51:00,53.4,48.4,30.29,SSE,165,0.0,4.0,83,0.00,,FEW031,0.00,VWS V14.01,2013-10-14 05:51:00,
2013-10-14 01:56:00,53.2,48.2,30.29,SSE,166,0.0,4.0,83,0.00,,FEW031,0.00,VWS V14.01,2013-10-14 05:56:00,
2013-10-14 02:01:00,52.8,47.8,30.29,SSE,165,0.0,0.0,83,0.00,,FEW031,0.00,VWS V14.01,2013-10-14 06:01:00,
2013-10-14 02:06:00,52.6,47.9,30.28,SSE,165,0.0,0.0,84,0.00,,FEW031,0.00,VWS V14.01,2013-10-14 06:06:00,
2013-10-14 02:11:00,52.4,47.7,30.28,SSE,166,0.0,0.0,84,0.00,,FEW031,0.00,VWS V14.01,2013-10-14 06:11:00,
2013-10-14 02:16:00,52.4,47.7,30.28,SSE,165,0.0,0.0,84,0.00,,FEW031,0.00,VWS V14.01,2013-10-14 06:16:00,
2013-10-14 02:21:00,52.4,47.8,30.29,SSE,165,0.0,0.0,84,0.00,,FEW031,0.00,VWS V14.01,2013-10-14 06:21:00,
2013-10-14 02:26:00,52.5,47.8,30.28,SSE,165,0.0,0.0,84,0.00,,FEW031,0.00,VWS V14.01,2013-10-14 06:26:00,
2013-10-14 02:31:00,52.5,47.8,30.28,SSE,165,0.0,0.0,84,0.00,,FEW031,0.00,VWS V14.01,2013-10-14 06:31:00,
2013-10-14 02:36:00,52.5,47.8,30.28,SSE,165,0.0,0.0,84,0.00,,FEW031,0.00,VWS V14.01,2013-10-14 06:36:00,
2013-10-14 02:41:00,52.4,47.4,30.28,SSE,165,0.0,0.0,83,0.00,,FEW031,0.00,VWS V14.01,2013-10-14 06:41:00,
2013-10-14 02:46:00,52.3,47.3,30.28,SSE,165,0.0,0.0,83,0.00,,FEW031,0.00,VWS V14.01,2013-10-14 06:46:00,
2013-10-14 02:51:00,52.1,47.4,30.28,SSE,165,0.0,0.0,84,0.00,,FEW031,0.00,VWS V14.01,2013-10-14 06:51:00,
2013-10-14 02:56:00,51.8,47.1,30.28,SSE,166,0.0,0.0,84,0.00,,FEW031,0.00,VWS V14.01,2013-10-14 06:56:00,
2013-10-14 03:01:00,51.5,46.8,30.28,SSE,166,0.0,0.0,85,0.00,,FEW030,0.00,VWS V14.01,2013-10-14 07:01:00,
2013-10-14 03:06:00,51.4,47.0,30.28,SSE,166,0.0,0.0,85,0.00,,FEW030,0.00,VWS V14.01,2013-10-14 07:06:00,
2013-10-14 03:11:00,51.2,46.8,30.28,SSE,165,0.0,0.0,85,0.00,,FEW030,0.00,VWS V14.01,2013-10-14 07:11:00,
2013-10-14 03:16:00,51.0,46.7,30.29,SSE,165,0.0,0.0,86,0.00,,FEW030,0.00,VWS V14.01,2013-10-14 07:16:00,
2013-10-14 03:21:00,50.8,46.8,30.29,SSE,166,0.0,0.0,86,0.00,,FEW030,0.00,VWS V14.01,2013-10-14 07:21:00,
2013-10-14 03:26:00,50.6,46.9,30.28,SSE,165,0.0,0.0,87,0.00,,FEW030,0.00,VWS V14.01,2013-10-14 07:26:00,
2013-10-14 03:31:00,50.5,46.8,30.28,SSE,165,0.0,0.0,87,0.00,,FEW030,0.00,VWS V14.01,2013-10-14 07:31:00,
2013-10-14 03:36:00,50.4,46.7,30.28,SSE,165,0.0,0.0,87,0.00,,FEW030,0.00,VWS V14.01,2013-10-14 07:36:00,
2013-10-14 03:41:00,50.3,46.6,30.28,SSE,165,0.0,0.0,87,0.00,,FEW030,0.00,VWS V14.01,2013-10-14 07:41:00,
2013-10-14 03:46:00,50.3,46.6,30.28,SSE,166,0.0,0.0,87,0.00,,FEW030,0.00,VWS V14.01,2013-10-14 07:46:00,
2013-10-14 03:51:00,50.2,46.5,30.28,SSE,166,0.0,0.0,87,0.00,,FEW030,0.00,VWS V14.01,2013-10-14 07:51:00,
2013-10-14 03:56:00,50.1,46.4,30.28,SSE,166,0.0,0.0,87,0.00,,FEW030,0.00,VWS V14.01,2013-10-14 07:56:00,
2013-10-14 04:01:00,50.2,46.5,30.28,SSE,165,0.0,0.0,87,0.00,,FEW031,0.00,VWS V14.01,2013-10-14 08:01:00,
2013-10-14 04:06:00,50.2,46.5,30.28,SSE,165,0.0,0.0,87,0.00,,FEW031,0.00,VWS V14.01,2013-10-14 08:06:00,
2013-10-14 04:11:00,50.1,46.4,30.28,SSE,165,0.0,0.0,87,0.00,,FEW031,0.00,VWS V14.01,2013-10-14 08:11:00,
2013-10-14 04:16:00,50.1,46.4,30.28,SSE,165,0.0,0.0,87,0.00,,FEW031,0.00,VWS V14.01,2013-10-14 08:16:00,
2013-10-14 04:21:00,50.1,46.4,30.27,SSE,166,0.0,0.0,87,0.00,,FEW031,0.00,VWS V14.01,2013-10-14 08:21:00,
2013-10-14 04:26:00,50.1,46.1,30.28,SSE,165,0.0,0.0,86,0.00,,FEW031,0.00,VWS V14.01,2013-10-14 08:26:00,
2013-10-14 04:31:00,50.0,46.3,30.28,SSE,165,0.0,0.0,87,0.00,,FEW031,0.00,VWS V14.01,2013-10-14 08:31:00,
2013-10-14 04:36:00,49.9,46.2,30.28,SSE,165,0.0,0.0,87,0.00,,FEW031,0.00,VWS V14.01,2013-10-14 08:36:00,
2013-10-14 04:41:00,49.8,46.1,30.28,SSE,165,0.0,0.0,87,0.00,,FEW031,0.00,VWS V14.01,2013-10-14 08:41:00,
2013-10-14 04:46:00,49.7,46.0,30.29,SSE,165,0.0,0.0,87,0.00,,FEW031,0.00,VWS V14.01,2013-10-14 08:46:00,
2013-10-14 04:51:00,49.6,45.9,30.28,SSE,166,0.0,0.0,87,0.00,,FEW031,0.00,VWS V14.01,2013-10-14 08:51:00,
2013-10-14 04:56:00,49.5,45.8,30.28,SSE,165,0.0,0.0,87,0.00,,FEW031,0.00,VWS V14.01,2013-10-14 08:56:00,
2013-10-14 05:01:00,49.4,45.7,30.28,SSE,166,0.0,0.0,87,0.00,,FEW031,0.00,VWS V14.01,2013-10-14 09:01:00,
2013-10-14 05:06:00,49.4,45.7,30.28,SSE,166,0.0,0.0,87,0.00,,FEW031,0.00,VWS V14.01,2013-10-14 09:06:00,
2013-10-14 05:11:00,49.3,45.9,30.28,SSE,165,0.0,0.0,88,0.00,,FEW031,0.00,VWS V14.01,2013-10-14 09:11:00,
2013-10-14 05:16:00,49.2,45.8,30.29,SSE,166,0.0,0.0,88,0.00,,FEW031,0.00,VWS V14.01,2013-10-14 09:16:00,
2013-10-14 05:21:00,49.2,45.8,30.29,SSE,165,0.0,0.0,88,0.00,,FEW031,0.00,VWS V14.01,2013-10-14 09:21:00,
2013-10-14 05:26:00,49.1,45.7,30.28,SSE,166,0.0,0.0,88,0.00,,FEW031,0.00,VWS V14.01,2013-10-14 09:26:00,
2013-10-14 05:31:00,49.1,45.7,30.29,SSE,166,0.0,0.0,88,0.00,,FEW031,0.00,VWS V14.01,2013-10-14 09:31:00,
2013-10-14 05:36:00,49.1,45.7,30.28,SSE,166,0.0,0.0,88,0.00,,FEW031,0.00,VWS V14.01,2013-10-14 09:36:00,
2013-10-14 05:41:00,49.0,45.6,30.28,SSE,166,0.0,0.0,88,0.00,,FEW031,0.00,VWS V14.01,2013-10-14 09:41:00,
2013-10-14 05:46:00,48.9,45.5,30.28,SSE,165,0.0,0.0,88,0.00,,FEW031,0.00,VWS V14.01,2013-10-14 09:46:00,
2013-10-14 05:51:00,48.8,45.4,30.28,SSE,165,0.0,0.0,88,0.00,,FEW031,0.00,VWS V14.01,2013-10-14 09:51:00,
2013-10-14 05:56:00,48.8,45.4,30.28,SSE,166,0.0,0.0,88,0.00,,FEW031,0.00,VWS V14.01,2013-10-14 09:56:00,
2013-10-14 06:01:00,48.8,45.7,30.28,SSE,166,0.0,0.0,89,0.00,,FEW031,0.00,VWS V14.01,2013-10-14 10:01:00,
2013-10-14 06:06:00,48.8,45.4,30.28,SSE,165,0.0,0.0,88,0.00,,FEW031,0.00,VWS V14.01,2013-10-14 10:06:00,
2013-10-14 06:11:00,48.8,45.4,30.28,SSE,166,0.0,0.0,88,0.00,,FEW031,0.00,VWS V14.01,2013-10-14 10:11:00,
2013-10-14 06:16:00,48.9,45.5,30.28,SSE,166,0.0,0.0,88,0.00,,FEW031,0.00,VWS V14.01,2013-10-14 10:16:00,
2013-10-14 06:21:00,48.8,45.4,30.28,SSE,165,0.0,0.0,88,0.00,,FEW031,0.00,VWS V14.01,2013-10-14 10:21:00,
2013-10-14 06:26:00,48.7,45.3,30.28,SSE,165,0.0,0.0,88,0.00,,FEW031,0.00,VWS V14.01,2013-10-14 10:26:00,
2013-10-14 06:31:00,48.7,45.3,30.29,SSE,166,0.0,0.0,88,0.00,,FEW031,0.00,VWS V14.01,2013-10-14 10:31:00,
2013-10-14 06:36:00,48.6,45.5,30.29,SSE,166,0.0,0.0,89,0.00,,FEW031,0.00,VWS V14.01,2013-10-14 10:36:00,
2013-10-14 06:41:00,48.5,45.4,30.29,SSE,166,0.0,0.0,89,0.00,,FEW031,0.00,VWS V14.01,2013-10-14 10:41:00,
2013-10-14 06:46:00,48.4,45.3,30.29,SSE,165,0.0,0.0,89,0.00,,FEW031,0.00,VWS V14.01,2013-10-14 10:46:00,
2013-10-14 06:51:00,48.3,45.2,30.29,SSE,166,0.0,0.0,89,0.00,,FEW031,0.00,VWS V14.01,2013-10-14 10:51:00,
2013-10-14 06:56:00,48.2,45.1,30.29,SSE,165,0.0,0.0,89,0.00,,FEW031,0.00,VWS V14.01,2013-10-14 10:56:00,
2013-10-14 07:01:00,48.1,45.0,30.29,SSE,165,0.0,0.0,89,0.00,,SCT250,0.00,VWS V14.01,2013-10-14 11:01:00,
2013-10-14 07:06:00,48.2,45.1,30.29,SSE,165,0.0,0.0,89,0.00,,SCT250,0.00,VWS V14.01,2013-10-14 11:06:00,
2013-10-14 07:11:00,48.3,45.2,30.28,SSE,166,0.0,0.0,89,0.00,,SCT250,0.00,VWS V14.01,2013-10-14 11:11:00,
2013-10-14 07:15:00,48.3,45.2,30.28,SSE,165,0.0,0.0,89,0.00,,SCT250,0.00,VWS V14.01,2013-10-14 11:15:00,
2013-10-14 07:21:00,48.4,45.3,30.28,SSE,165,0.0,0.0,89,0.00,,SCT250,0.00,VWS V14.01,2013-10-14 11:21:00,
2013-10-14 07:26:00,48.5,45.4,30.29,SSE,165,0.0,0.0,89,0.00,,SCT250,0.00,VWS V14.01,2013-10-14 11:26:00,
2013-10-14 07:31:00,48.5,45.4,30.29,SSE,165,0.0,0.0,89,0.00,,SCT250,0.00,VWS V14.01,2013-10-14 11:31:00,
2013-10-14 07:35:00,48.6,45.5,30.29,SSE,165,0.0,0.0,89,0.00,,SCT250,0.00,VWS V14.01,2013-10-14 11:35:00,
2013-10-14 07:41:00,48.6,45.5,30.29,SSE,165,0.0,0.0,89,0.00,,SCT250,0.00,VWS V14.01,2013-10-14 11:41:00,
2013-10-14 07:45:00,48.6,45.5,30.29,SSE,165,0.0,0.0,89,0.00,,SCT250,0.00,VWS V14.01,2013-10-14 11:45:00,
2013-10-14 07:50:00,48.6,45.8,30.29,SSE,166,0.0,0.0,90,0.00,,SCT250,0.00,VWS V14.01,2013-10-14 11:50:00,
2013-10-14 07:55:00,49.5,47.0,30.29,SSE,165,0.0,0.0,91,0.00,,SCT250,0.00,VWS V14.01,2013-10-14 11:55:00,
2013-10-14 08:01:00,50.7,47.3,30.29,SSE,165,0.0,0.0,88,0.00,,SCT250,0.00,VWS V14.01,2013-10-14 12:01:00,
2013-10-14 08:05:00,51.8,48.1,30.29,SSE,165,0.0,0.0,87,0.00,,SCT250,0.00,VWS V14.01,2013-10-14 12:05:00,
2013-10-14 08:11:00,52.6,48.2,30.30,SSE,165,0.0,0.0,85,0.00,,SCT250,0.00,VWS V14.01,2013-10-14 12:11:00,
2013-10-14 08:16:00,52.6,47.6,30.30,SSE,165,0.0,0.0,83,0.00,,SCT250,0.00,VWS V14.01,2013-10-14 12:16:00,
2013-10-14 08:20:00,52.1,47.7,30.29,SSE,165,0.0,0.0,85,0.00,,SCT250,0.00,VWS V14.01,2013-10-14 12:20:00,
2013-10-14 08:25:00,51.8,47.4,30.29,SSE,165,0.0,1.0,85,0.00,,SCT250,0.00,VWS V14.01,2013-10-14 12:25:00,
2013-10-14 08:30:00,51.8,48.1,30.29,SSE,165,0.0,0.0,87,0.00,,SCT250,0.00,VWS V14.01,2013-10-14 12:30:00,
2013-10-14 08:35:00,51.9,47.8,30.30,SSE,166,0.0,0.0,86,0.00,,SCT250,0.00,VWS V14.01,2013-10-14 12:35:00,
2013-10-14 08:41:00,52.0,48.3,30.30,SSE,165,0.0,0.0,87,0.00,,SCT250,0.00,VWS V14.01,2013-10-14 12:41:00,
2013-10-14 08:45:00,52.5,48.4,30.30,SSE,165,0.0,1.0,86,0.00,,SCT250,0.00,VWS V14.01,2013-10-14 12:45:00,
2013-10-14 08:50:00,52.6,48.2,30.30,SSE,166,0.0,2.0,85,0.00,,SCT250,0.00,VWS V14.01,2013-10-14 12:50:00,
2013-10-14 08:55:00,52.7,48.3,30.30,SSE,165,0.0,4.0,85,0.00,,SCT250,0.00,VWS V14.01,2013-10-14 12:55:00,
2013-10-14 09:00:00,52.9,48.2,30.30,SSE,165,0.0,0.0,84,0.00,,SCT250,0.00,VWS V14.01,2013-10-14 13:00:00,
2013-10-14 09:05:00,53.2,48.2,30.30,SSE,165,0.0,1.0,83,0.00,,SCT250,0.00,VWS V14.01,2013-10-14 13:05:00,
2013-10-14 09:10:00,53.5,48.5,30.30,SSE,165,0.0,1.0,83,0.00,,SCT250,0.00,VWS V14.01,2013-10-14 13:10:00,
2013-10-14 09:16:00,53.9,48.9,30.30,SSE,165,0.0,1.0,83,0.00,,SCT250,0.00,VWS V14.01,2013-10-14 13:16:00,
2013-10-14 09:20:00,54.2,49.2,30.30,SSE,161,3.0,3.0,83,0.00,,SCT250,0.00,VWS V14.01,2013-10-14 13:20:00,
2013-10-14 09:25:00,54.5,49.1,30.30,SSE,160,0.0,7.0,82,0.00,,SCT250,0.00,VWS V14.01,2013-10-14 13:25:00,
2013-10-14 09:30:00,54.6,49.2,30.30,SSE,163,1.0,1.0,82,0.00,,SCT250,0.00,VWS V14.01,2013-10-14 13:30:00,
2013-10-14 09:36:00,54.9,49.2,30.30,SSE,163,0.0,1.0,81,0.00,,SCT250,0.00,VWS V14.01,2013-10-14 13:36:00,
2013-10-14 09:40:00,55.0,49.3,30.30,SSE,163,0.0,3.0,81,0.00,,SCT250,0.00,VWS V14.01,2013-10-14 13:40:00,
2013-10-14 09:46:00,55.3,49.6,30.30,SSE,156,0.0,4.0,81,0.00,,SCT250,0.00,VWS V14.01,2013-10-14 13:46:00,
2013-10-14 09:50:00,55.5,49.4,30.30,SSE,149,0.0,6.0,80,0.00,,SCT250,0.00,VWS V14.01,2013-10-14 13:50:00,
2013-10-14 09:56:00,55.8,50.1,30.30,SSE,149,0.0,6.0,81,0.00,,SCT250,0.00,VWS V14.01,2013-10-14 13:56:00,
2013-10-14 10:00:00,56.2,50.1,30.30,ENE,64,7.0,7.0,80,0.00,,SCT250,0.00,VWS V14.01,2013-10-14 14:00:00,
2013-10-14 10:05:00,56.3,49.9,30.30,NNE,27,0.0,7.0,79,0.00,,SCT250,0.00,VWS V14.01,2013-10-14 14:05:00,
2013-10-14 10:10:00,56.6,50.2,30.30,ENE,69,0.0,7.0,79,0.00,,SCT250,0.00,VWS V14.01,2013-10-14 14:10:00,
2013-10-14 10:15:00,56.7,49.9,30.29,NNE,20,0.0,7.0,78,0.00,,SCT250,0.00,VWS V14.01,2013-10-14 14:15:00,
2013-10-14 10:20:00,57.0,50.2,30.30,NE,53,0.0,7.0,78,0.00,,SCT250,0.00,VWS V14.01,2013-10-14 14:20:00,
2013-10-14 10:25:00,57.3,50.5,30.29,NE,53,0.0,7.0,78,0.00,,SCT250,0.00,VWS V14.01,2013-10-14 14:25:00,
2013-10-14 10:30:00,57.9,50.7,30.29,NE,53,0.0,0.0,77,0.00,,SCT250,0.00,VWS V14.01,2013-10-14 14:30:00,
2013-10-14 10:35:00,58.5,51.1,30.29,NNE,16,0.0,4.0,76,0.00,,SCT250,0.00,VWS V14.01,2013-10-14 14:35:00,
2013-10-14 10:40:00,59.4,51.5,30.29,NE,55,0.0,4.0,75,0.00,,SCT250,0.00,VWS V14.01,2013-10-14 14:40:00,
2013-10-14 10:45:00,60.2,51.5,30.28,ENE,57,1.0,4.0,73,0.00,,SCT250,0.00,VWS V14.01,2013-10-14 14:45:00,
2013-10-14 10:50:00,60.8,52.1,30.28,ENE,64,0.0,4.0,73,0.00,,SCT250,0.00,VWS V14.01,2013-10-14 14:50:00,
2013-10-14 10:55:00,61.4,52.0,30.29,ENE,75,0.0,4.0,71,0.00,,SCT250,0.00,VWS V14.01,2013-10-14 14:55:00,
2013-10-14 11:00:00,61.8,51.9,30.28,SE,142,2.0,3.0,70,0.00,,BKN250,0.00,VWS V14.01,2013-10-14 15:00:00,
2013-10-14 11:05:00,62.4,52.5,30.28,SE,142,0.0,3.0,70,0.00,,BKN250,0.00,VWS V14.01,2013-10-14 15:05:00,
2013-10-14 11:10:00,62.7,52.4,30.27,SSE,154,0.0,4.0,69,0.00,,BKN250,0.00,VWS V14.01,2013-10-14 15:10:00,
2013-10-14 11:15:00,62.8,52.5,30.28,NE,55,0.0,4.0,69,0.00,,BKN250,0.00,VWS V14.01,2013-10-14 15:15:00,
2013-10-14 11:21:00,63.0,52.7,30.27,NNE,20,4.0,5.0,69,0.00,,BKN250,0.00,VWS V14.01,2013-10-14 15:21:00,
2013-10-14 11:26:00,63.0,52.7,30.28,NNE,29,0.0,5.0,69,0.00,,BKN250,0.00,VWS V14.01,2013-10-14 15:26:00,
2013-10-14 11:31:00,63.7,53.0,30.27,NNE,29,0.0,2.0,68,0.00,,BKN250,0.00,VWS V14.01,2013-10-14 15:31:00,
2013-10-14 11:36:00,63.7,52.5,30.27,NNE,27,5.0,6.0,67,0.00,,BKN250,0.00,VWS V14.01,2013-10-14 15:36:00,
2013-10-14 11:41:00,63.3,53.0,30.27,NNE,21,3.0,6.0,69,0.00,,BKN250,0.00,VWS V14.01,2013-10-14 15:41:00,
2013-10-14 11:46:00,63.9,53.5,30.27,East,82,0.0,6.0,69,0.00,,BKN250,0.00,VWS V14.01,2013-10-14 15:46:00,
2013-10-14 11:51:00,64.6,53.4,30.27,ENE,64,2.0,7.0,67,0.00,,BKN250,0.00,VWS V14.01,2013-10-14 15:51:00,
2013-10-14 11:56:00,65.0,53.8,30.26,NNE,26,3.0,7.0,67,0.00,,BKN250,0.00,VWS V14.01,2013-10-14 15:56:00,
2013-10-14 12:01:00,64.8,53.6,30.26,NE,55,1.0,1.0,66,0.00,,BKN250,0.00,VWS V14.01,2013-10-14 16:01:00,
2013-10-14 12:06:00,64.8,53.6,30.27,NE,54,0.0,1.0,67,0.00,,BKN250,0.00,VWS V14.01,2013-10-14 16:06:00,
2013-10-14 12:11:00,65.2,53.2,30.26,ENE,60,1.0,4.0,65,0.00,,BKN250,0.00,VWS V14.01,2013-10-14 16:11:00,
2013-10-14 12:16:00,65.4,53.3,30.26,ENE,61,0.0,4.0,65,0.00,,BKN250,0.00,VWS V14.01,2013-10-14 16:16:00,
2013-10-14 12:21:00,65.8,53.7,30.26,ENE,61,0.0,4.0,65,0.00,,BKN250,0.00,VWS V14.01,2013-10-14 16:21:00,
2013-10-14 12:26:00,66.2,53.7,30.26,ENE,61,0.0,4.0,64,0.00,,BKN250,0.00,VWS V14.01,2013-10-14 16:26:00,
2013-10-14 12:31:00,66.7,53.7,30.25,ENE,77,0.0,6.0,63,0.00,,BKN250,0.00,VWS V14.01,2013-10-14 16:31:00,
2013-10-14 12:36:00,66.3,52.9,30.25,ENE,77,0.0,6.0,62,0.00,,BKN250,0.00,VWS V14.01,2013-10-14 16:36:00,
2013-10-14 12:41:00,66.0,53.5,30.25,ENE,77,0.0,6.0,64,0.00,,BKN250,0.00,VWS V14.01,2013-10-14 16:41:00,
2013-10-14 12:46:00,65.9,53.0,30.25,NNE,19,0.0,6.0,63,0.00,,BKN250,0.00,VWS V14.01,2013-10-14 16:46:00,
2013-10-14 12:51:00,66.6,53.2,30.24,SE,136,0.0,6.0,62,0.00,,BKN250,0.00,VWS V14.01,2013-10-14 16:51:00,
2013-10-14 12:56:00,67.0,53.6,30.24,SE,136,0.0,6.0,62,0.00,,BKN250,0.00,VWS V14.01,2013-10-14 16:56:00,
2013-10-14 13:01:00,67.5,52.7,30.24,SE,136,0.0,0.0,59,0.00,,BKN250,0.00,VWS V14.01,2013-10-14 17:01:00,
2013-10-14 13:06:00,67.7,52.9,30.23,SE,133,0.0,1.0,59,0.00,,BKN250,0.00,VWS V14.01,2013-10-14 17:06:00,
2013-10-14 13:11:00,67.7,53.3,30.24,ESE,106,0.0,3.0,60,0.00,,BKN250,0.00,VWS V14.01,2013-10-14 17:11:00,
2013-10-14 13:16:00,67.9,53.5,30.23,ESE,106,0.0,3.0,60,0.00,,BKN250,0.00,VWS V14.01,2013-10-14 17:16:00,
2013-10-14 13:21:00,68.2,53.8,30.24,SSW,194,0.0,3.0,60,0.00,,BKN250,0.00,VWS V14.01,2013-10-14 17:21:00,
2013-10-14 13:26:00,68.3,53.0,30.23,SSW,194,0.0,3.0,59,0.00,,BKN250,0.00,VWS V14.01,2013-10-14 17:26:00,
2013-10-14 13:31:00,67.8,53.9,30.23,SSW,194,0.0,0.0,61,0.00,,BKN250,0.00,VWS V14.01,2013-10-14 17:31:00,
2013-10-14 13:36:00,68.0,54.1,30.23,East,81,1.0,5.0,61,0.00,,BKN250,0.00,VWS V14.01,2013-10-14 17:36:00,
2013-10-14 13:41:00,68.4,53.5,30.22,SSE,156,0.0,5.0,59,0.00,,BKN250,0.00,VWS V14.01,2013-10-14 17:41:00,
2013-10-14 13:46:00,69.2,54.3,30.22,East,88,0.0,5.0,59,0.00,,BKN250,0.00,VWS V14.01,2013-10-14 17:46:00,
2013-10-14 13:51:00,68.8,53.4,30.22,ENE,70,0.0,5.0,58,0.00,,BKN250,0.00,VWS V14.01,2013-10-14 17:51:00,
2013-10-14 13:56:00,68.3,53.9,30.22,ENE,68,0.0,5.0,60,0.00,,BKN250,0.00,VWS V14.01,2013-10-14 17:56:00,
2013-10-14 14:01:00,69.8,54.4,30.22,NNE,30,0.0,4.0,58,0.00,,BKN250,0.00,VWS V14.01,2013-10-14 18:01:00,
2013-10-14 14:06:00,69.6,54.2,30.22,NNE,21,0.0,4.0,58,0.00,,BKN250,0.00,VWS V14.01,2013-10-14 18:06:00,
2013-10-14 14:11:00,70.1,54.7,30.21,NW,309,0.0,4.0,58,0.00,,BKN250,0.00,VWS V14.01,2013-10-14 18:11:00,
2013-10-14 14:15:00,70.9,54.4,30.22,NW,310,0.0,4.0,56,0.00,,BKN250,0.00,VWS V14.01,2013-10-14 18:15:00,
2013-10-14 14:20:00,70.4,54.0,30.21,NE,52,0.0,5.0,56,0.00,,BKN250,0.00,VWS V14.01,2013-10-14 18:20:00,
2013-10-14 14:25:00,70.7,53.8,30.21,ENE,58,0.0,5.0,55,0.00,,BKN250,0.00,VWS V14.01,2013-10-14 18:25:00,
2013-10-14 14:30:00,70.9,54.4,30.21,North,11,0.0,3.0,56,0.00,,BKN250,0.00,VWS V14.01,2013-10-14 18:30:00,
2013-10-14 14:35:00,71.2,54.2,30.21,NNE,18,0.0,5.0,55,0.00,,BKN250,0.00,VWS V14.01,2013-10-14 18:35:00,
2013-10-14 14:40:00,71.6,54.1,30.21,WSW,248,0.0,5.0,54,0.00,,BKN250,0.00,VWS V14.01,2013-10-14 18:40:00,
2013-10-14 14:45:00,71.0,54.6,30.21,SSE,152,0.0,8.0,56,0.00,,BKN250,0.00,VWS V14.01,2013-10-14 18:45:00,
2013-10-14 14:50:00,71.3,54.3,30.21,SSE,152,0.0,8.0,55,0.00,,BKN250,0.00,VWS V14.01,2013-10-14 18:50:00,
2013-10-14 14:55:00,71.5,55.0,30.20,SSE,153,0.0,8.0,56,0.00,,BKN250,0.00,VWS V14.01,2013-10-14 18:55:00,
2013-10-14 15:00:00,71.0,54.5,30.20,South,182,1.0,1.0,56,0.00,,BKN260,0.00,VWS V14.01,2013-10-14 19:00:00,
2013-10-14 15:05:00,70.5,54.5,30.20,South,188,0.0,5.0,57,0.00,,BKN260,0.00,VWS V14.01,2013-10-14 19:05:00,
2013-10-14 15:10:00,70.5,55.0,30.20,South,189,0.0,5.0,58,0.00,,BKN260,0.00,VWS V14.01,2013-10-14 19:10:00,
2013-10-14 15:15:00,70.3,54.8,30.20,SSW,198,0.0,5.0,58,0.00,,BKN260,0.00,VWS V14.01,2013-10-14 19:15:00,
2013-10-14 15:20:00,70.4,54.5,30.20,SW,218,0.0,5.0,57,0.00,,BKN260,0.00,VWS V14.01,2013-10-14 19:20:00,
2013-10-14 15:25:00,70.4,54.5,30.20,SSW,196,1.0,7.0,57,0.00,,BKN260,0.00,VWS V14.01,2013-10-14 19:25:00,
2013-10-14 15:30:00,70.6,54.2,30.20,SSW,199,0.0,1.0,56,0.00,,BKN260,0.00,VWS V14.01,2013-10-14 19:30:00,
2013-10-14 15:35:00,70.3,54.4,30.20,SW,218,0.0,5.0,57,0.00,,BKN260,0.00,VWS V14.01,2013-10-14 19:35:00,
2013-10-14 15:40:00,69.5,54.1,30.20,SSW,212,0.0,7.0,58,0.00,,BKN260,0.00,VWS V14.01,2013-10-14 19:40:00,
2013-10-14 15:45:00,68.8,53.9,30.20,WSW,258,0.0,7.0,59,0.00,,BKN260,0.00,VWS V14.01,2013-10-14 19:45:00,
2013-10-14 15:50:00,67.8,53.9,30.20,South,189,1.0,7.0,61,0.00,,BKN260,0.00,VWS V14.01,2013-10-14 19:50:00,
2013-10-14 15:55:00,67.1,53.2,30.20,South,185,0.0,7.0,61,0.00,,BKN260,0.00,VWS V14.01,2013-10-14 19:55:00,
2013-10-14 16:00:00,66.6,53.2,30.21,SSW,206,0.0,0.0,62,0.00,,BKN260,0.00,VWS V14.01,2013-10-14 20:00:00,
2013-10-14 16:05:00,67.0,53.6,30.20,SSW,209,0.0,0.0,62,0.00,,BKN260,0.00,VWS V14.01,2013-10-14 20:05:00,
2013-10-14 16:10:00,67.6,54.1,30.20,SSW,210,0.0,1.0,62,0.00,,BKN260,0.00,VWS V14.01,2013-10-14 20:10:00,
2013-10-14 16:15:00,67.5,54.0,30.20,SSW,210,0.0,3.0,62,0.00,,BKN260,0.00,VWS V14.01,2013-10-14 20:15:00,
2013-10-14 16:20:00,67.1,53.7,30.20,SSW,210,0.0,5.0,62,0.00,,BKN260,0.00,VWS V14.01,2013-10-14 20:20:00,
2013-10-14 16:25:00,66.9,54.0,30.20,SSW,209,0.0,5.0,63,0.00,,BKN260,0.00,VWS V14.01,2013-10-14 20:25:00,
2013-10-14 16:30:00,66.4,53.4,30.20,SW,222,0.0,0.0,63,0.00,,BKN260,0.00,VWS V14.01,2013-10-14 20:30:00,
2013-10-14 16:35:00,66.1,53.6,30.20,SW,221,0.0,1.0,64,0.00,,BKN260,0.00,VWS V14.01,2013-10-14 20:35:00,
2013-10-14 16:40:00,66.3,53.8,30.20,SW,222,0.0,1.0,64,0.00,,BKN260,0.00,VWS V14.01,2013-10-14 20:40:00,
2013-10-14 16:45:00,66.4,53.4,30.19,SW,222,0.0,1.0,63,0.00,,BKN260,0.00,VWS V14.01,2013-10-14 20:45:00,
2013-10-14 16:50:00,65.7,53.2,30.20,SW,224,0.0,4.0,64,0.00,,BKN260,0.00,VWS V14.01,2013-10-14 20:50:00,
2013-10-14 16:55:00,65.2,53.6,30.20,SW,224,0.0,4.0,66,0.00,,BKN260,0.00,VWS V14.01,2013-10-14 20:55:00,
2013-10-14 17:00:00,65.1,53.9,30.20,SSE,155,2.0,6.0,67,0.00,,BKN250,0.00,VWS V14.01,2013-10-14 21:00:00,
2013-10-14 17:02:00,65.0,53.8,30.20,SSE,155,0.0,6.0,67,0.00,,BKN250,0.00,VWS V14.01,2013-10-14 21:02:00,
2013-10-14 17:07:00,65.0,53.8,30.20,SSE,154,0.0,6.0,67,0.00,,BKN250,0.00,VWS V14.01,2013-10-14 21:07:00,
2013-10-14 17:12:00,64.7,53.9,30.20,South,185,0.0,6.0,68,0.00,,BKN250,0.00,VWS V14.01,2013-10-14 21:12:00,
2013-10-14 17:17:00,64.7,53.9,30.20,SSE,168,0.0,6.0,67,0.00,,BKN250,0.00,VWS V14.01,2013-10-14 21:17:00,
2013-10-14 17:22:00,64.6,53.8,30.20,South,187,0.0,6.0,68,0.00,,BKN250,0.00,VWS V14.01,2013-10-14 21:22:00,
2013-10-14 17:27:00,64.4,53.6,30.20,South,187,0.0,6.0,68,0.00,,BKN250,0.00,VWS V14.01,2013-10-14 21:27:00,
2013-10-14 17:32:00,64.4,53.6,30.21,SW,214,0.0,3.0,68,0.00,,BKN250,0.00,VWS V14.01,2013-10-14 21:32:00,
2013-10-14 17:37:00,64.1,53.3,30.21,South,187,0.0,3.0,68,0.00,,BKN250,0.00,VWS V14.01,2013-10-14 21:37:00,
2013-10-14 17:42:00,63.9,53.1,30.21,South,187,0.0,3.0,68,0.00,,BKN250,0.00,VWS V14.01,2013-10-14 21:42:00,
2013-10-14 17:47:00,63.7,53.0,30.21,South,187,0.0,3.0,68,0.00,,BKN250,0.00,VWS V14.01,2013-10-14 21:47:00,
2013-10-14 17:52:00,63.6,53.3,30.21,South,187,0.0,3.0,69,0.00,,BKN250,0.00,VWS V14.01,2013-10-14 21:52:00,
2013-10-14 17:57:00,63.2,52.9,30.21,South,187,0.0,3.0,69,0.00,,BKN250,0.00,VWS V14.01,2013-10-14 21:57:00,
2013-10-14 18:02:00,62.7,52.8,30.21,South,187,0.0,0.0,70,0.00,,BKN250,0.00,VWS V14.01,2013-10-14 22:02:00,
2013-10-14 18:07:00,62.4,52.9,30.21,South,187,0.0,1.0,71,0.00,,BKN250,0.00,VWS V14.01,2013-10-14 22:07:00,
2013-10-14 18:12:00,62.1,52.6,30.21,South,187,0.0,1.0,71,0.00,,BKN250,0.00,VWS V14.01,2013-10-14 22:12:00,
2013-10-14 18:17:00,61.8,52.7,30.21,South,187,0.0,1.0,72,0.00,,BKN250,0.00,VWS V14.01,2013-10-14 22:17:00,
2013-10-14 18:22:00,61.6,52.9,30.21,South,187,0.0,1.0,73,0.00,,BKN250,0.00,VWS V14.01,2013-10-14 22:22:00,
2013-10-14 18:27:00,61.5,52.8,30.21,South,187,0.0,1.0,73,0.00,,BKN250,0.00,VWS V14.01,2013-10-14 22:27:00,
2013-10-14 18:32:00,61.2,52.5,30.22,South,187,0.0,1.0,73,0.00,,BKN250,0.00,VWS V14.01,2013-10-14 22:32:00,
2013-10-14 18:37:00,61.0,52.6,30.22,South,187,0.0,1.0,74,0.00,,BKN250,0.00,VWS V14.01,2013-10-14 22:37:00,
2013-10-14 18:42:00,60.9,52.6,30.22,South,187,0.0,1.0,74,0.00,,BKN250,0.00,VWS V14.01,2013-10-14 22:42:00,
2013-10-14 18:47:00,60.7,52.7,30.22,South,187,0.0,1.0,75,0.00,,BKN250,0.00,VWS V14.01,2013-10-14 22:47:00,
2013-10-14 18:52:00,60.4,52.5,30.22,South,187,0.0,1.0,75,0.00,,BKN250,0.00,VWS V14.01,2013-10-14 22:52:00,
2013-10-14 18:57:00,60.3,52.3,30.22,South,187,0.0,1.0,75,0.00,,BKN250,0.00,VWS V14.01,2013-10-14 22:57:00,
2013-10-14 19:02:00,60.2,52.3,30.22,South,187,0.0,1.0,75,0.00,,BKN250,0.00,VWS V14.01,2013-10-14 23:02:00,
2013-10-14 19:07:00,60.2,52.5,30.22,South,187,0.0,1.0,76,0.00,,BKN250,0.00,VWS V14.01,2013-10-14 23:07:00,
2013-10-14 19:12:00,60.1,52.5,30.23,South,187,0.0,1.0,76,0.00,,BKN250,0.00,VWS V14.01,2013-10-14 23:12:00,
2013-10-14 19:17:00,59.8,52.6,30.22,South,187,0.0,1.0,77,0.00,,BKN250,0.00,VWS V14.01,2013-10-14 23:17:00,
2013-10-14 19:22:00,59.6,52.4,30.22,South,187,0.0,1.0,77,0.00,,BKN250,0.00,VWS V14.01,2013-10-14 23:22:00,
2013-10-14 19:27:00,59.3,52.5,30.23,South,187,0.0,1.0,78,0.00,,BKN250,0.00,VWS V14.01,2013-10-14 23:27:00,
2013-10-14 19:32:00,59.2,52.7,30.22,South,187,0.0,0.0,79,0.00,,BKN250,0.00,VWS V14.01,2013-10-14 23:32:00,
2013-10-14 19:37:00,58.9,52.4,30.22,South,187,0.0,0.0,79,0.00,,BKN250,0.00,VWS V14.01,2013-10-14 23:37:00,
2013-10-14 19:42:00,58.8,52.3,30.22,South,187,0.0,0.0,79,0.00,,BKN250,0.00,VWS V14.01,2013-10-14 23:42:00,
2013-10-14 19:47:00,58.9,52.4,30.22,South,187,0.0,0.0,79,0.00,,BKN250,0.00,VWS V14.01,2013-10-14 23:47:00,
2013-10-14 19:52:00,59.0,52.8,30.22,South,187,0.0,0.0,80,0.00,,BKN250,0.00,VWS V14.01,2013-10-14 23:52:00,
2013-10-14 19:57:00,58.9,52.4,30.21,South,187,0.0,0.0,79,0.00,,BKN250,0.00,VWS V14.01,2013-10-14 23:57:00,
2013-10-14 20:02:00,58.2,52.1,30.21,South,187,0.0,0.0,80,0.00,,SCT250,0.00,VWS V14.01,2013-10-15 00:02:00,
2013-10-14 20:07:00,58.1,52.3,30.22,South,186,0.0,0.0,81,0.00,,SCT250,0.00,VWS V14.01,2013-10-15 00:07:00,
2013-10-14 20:12:00,57.8,52.0,30.21,South,187,0.0,0.0,81,0.00,,SCT250,0.00,VWS V14.01,2013-10-15 00:12:00,
2013-10-14 20:17:00,57.6,52.2,30.21,South,188,0.0,0.0,82,0.00,,SCT250,0.00,VWS V14.01,2013-10-15 00:17:00,
2013-10-14 20:22:00,57.6,52.2,30.21,South,187,0.0,0.0,82,0.00,,SCT250,0.00,VWS V14.01,2013-10-15 00:22:00,
2013-10-14 20:27:00,57.8,52.3,30.22,South,187,0.0,0.0,82,0.00,,SCT250,0.00,VWS V14.01,2013-10-15 00:27:00,
2013-10-14 20:32:00,57.8,52.3,30.21,South,187,0.0,0.0,82,0.00,,SCT250,0.00,VWS V14.01,2013-10-15 00:32:00,
2013-10-14 20:37:00,57.6,52.2,30.21,South,188,0.0,0.0,82,0.00,,SCT250,0.00,VWS V14.01,2013-10-15 00:37:00,
2013-10-14 20:42:00,57.6,52.2,30.22,South,187,0.0,0.0,82,0.00,,SCT250,0.00,VWS V14.01,2013-10-15 00:42:00,
2013-10-14 20:47:00,57.3,52.2,30.22,South,187,0.0,0.0,83,0.00,,SCT250,0.00,VWS V14.01,2013-10-15 00:47:00,
2013-10-14 20:52:00,57.4,52.3,30.21,South,187,0.0,0.0,83,0.00,,SCT250,0.00,VWS V14.01,2013-10-15 00:52:00,
2013-10-14 20:57:00,57.5,52.1,30.21,South,188,0.0,0.0,82,0.00,,SCT250,0.00,VWS V14.01,2013-10-15 00:57:00,
2013-10-14 21:02:00,57.5,52.1,30.21,South,187,0.0,0.0,82,0.00,,SCT250,0.00,VWS V14.01,2013-10-15 01:02:00,
2013-10-14 21:07:00,57.4,52.0,30.21,South,187,0.0,0.0,82,0.00,,SCT250,0.00,VWS V14.01,2013-10-15 01:07:00,
2013-10-14 21:12:00,57.1,52.0,30.21,South,188,0.0,0.0,83,0.00,,SCT250,0.00,VWS V14.01,2013-10-15 01:12:00,
2013-10-14 21:17:00,56.6,51.5,30.22,South,187,0.0,0.0,83,0.00,,SCT250,0.00,VWS V14.01,2013-10-15 01:17:00,
2013-10-14 21:22:00,56.3,51.5,30.21,South,187,0.0,0.0,84,0.00,,SCT250,0.00,VWS V14.01,2013-10-15 01:22:00,
2013-10-14 21:27:00,56.5,51.7,30.21,South,187,0.0,0.0,84,0.00,,SCT250,0.00,VWS V14.01,2013-10-15 01:27:00,
2013-10-14 21:32:00,56.3,51.5,30.21,South,187,0.0,0.0,84,0.00,,SCT250,0.00,VWS V14.01,2013-10-15 01:32:00,
2013-10-14 21:37:00,56.1,51.3,30.21,South,187,0.0,0.0,84,0.00,,SCT250,0.00,VWS V14.01,2013-10-15 01:37:00,
2013-10-14 21:42:00,56.0,51.6,30.21,South,187,0.0,0.0,85,0.00,,SCT250,0.00,VWS V14.01,2013-10-15 01:42:00,
2013-10-14 21:47:00,55.9,51.5,30.21,South,187,0.0,0.0,85,0.00,,SCT250,0.00,VWS V14.01,2013-10-15 01:47:00,
2013-10-14 21:52:00,55.7,51.3,30.21,South,187,0.0,0.0,85,0.00,,SCT250,0.00,VWS V14.01,2013-10-15 01:52:00,
2013-10-14 21:57:00,55.5,51.4,30.21,South,188,0.0,0.0,86,0.00,,SCT250,0.00,VWS V14.01,2013-10-15 01:57:00,
2013-10-14 22:02:00,55.3,51.2,30.21,South,187,0.0,0.0,86,0.00,,FEW250,0.00,VWS V14.01,2013-10-15 02:02:00,
2013-10-14 22:07:00,55.1,51.0,30.21,South,188,0.0,0.0,86,0.00,,FEW250,0.00,VWS V14.01,2013-10-15 02:07:00,
2013-10-14 22:12:00,55.0,51.2,30.21,South,187,0.0,0.0,87,0.00,,FEW250,0.00,VWS V14.01,2013-10-15 02:12:00,
2013-10-14 22:17:00,55.0,51.1,30.21,South,187,0.0,0.0,87,0.00,,FEW250,0.00,VWS V14.01,2013-10-15 02:17:00,
2013-10-14 22:22:00,54.9,51.1,30.21,South,187,0.0,0.0,87,0.00,,FEW250,0.00,VWS V14.01,2013-10-15 02:22:00,
2013-10-14 22:27:00,54.7,50.9,30.21,South,187,0.0,0.0,87,0.00,,FEW250,0.00,VWS V14.01,2013-10-15 02:27:00,
2013-10-14 22:32:00,54.6,50.8,30.20,South,187,0.0,0.0,87,0.00,,FEW250,0.00,VWS V14.01,2013-10-15 02:32:00,
2013-10-14 22:37:00,54.5,51.0,30.21,South,187,0.0,0.0,88,0.00,,FEW250,0.00,VWS V14.01,2013-10-15 02:37:00,
2013-10-14 22:42:00,54.3,50.8,30.21,South,187,0.0,0.0,88,0.00,,FEW250,0.00,VWS V14.01,2013-10-15 02:42:00,
2013-10-14 22:47:00,54.2,50.7,30.21,South,188,0.0,0.0,88,0.00,,FEW250,0.00,VWS V14.01,2013-10-15 02:47:00,
2013-10-14 22:52:00,54.4,50.9,30.21,South,187,0.0,0.0,88,0.00,,FEW250,0.00,VWS V14.01,2013-10-15 02:52:00,
2013-10-14 22:57:00,54.3,50.8,30.21,South,187,0.0,0.0,88,0.00,,FEW250,0.00,VWS V14.01,2013-10-15 02:57:00,
2013-10-14 23:02:00,54.3,50.8,30.21,South,187,0.0,0.0,88,0.00,,FEW250,0.00,VWS V14.01,2013-10-15 03:02:00,
2013-10-14 23:07:00,54.3,50.8,30.21,South,187,0.0,0.0,88,0.00,,FEW250,0.00,VWS V14.01,2013-10-15 03:07:00,
2013-10-14 23:12:00,54.2,50.7,30.22,South,187,0.0,0.0,88,0.00,,FEW250,0.00,VWS V14.01,2013-10-15 03:12:00,
2013-10-14 23:17:00,54.0,50.8,30.22,South,187,0.0,0.0,89,0.00,,FEW250,0.00,VWS V14.01,2013-10-15 03:17:00,
2013-10-14 23:22:00,53.8,50.6,30.22,South,187,0.0,0.0,89,0.00,,FEW250,0.00,VWS V14.01,2013-10-15 03:22:00,
2013-10-14 23:27:00,53.8,50.6,30.22,South,187,0.0,0.0,89,0.00,,FEW250,0.00,VWS V14.01,2013-10-15 03:27:00,
2013-10-14 23:32:00,53.6,50.4,30.22,South,187,0.0,0.0,89,0.00,,FEW250,0.00,VWS V14.01,2013-10-15 03:32:00,
2013-10-14 23:37:00,53.4,50.5,30.22,South,187,0.0,0.0,89,0.00,,FEW250,0.00,VWS V14.01,2013-10-15 03:37:00,
2013-10-14 23:42:00,53.4,50.2,30.22,South,187,0.0,0.0,89,0.00,,FEW250,0.00,VWS V14.01,2013-10-15 03:42:00,
2013-10-14 23:47:00,53.5,50.6,30.21,South,187,0.0,0.0,90,0.00,,FEW250,0.00,VWS V14.01,2013-10-15 03:47:00,
2013-10-14 23:52:00,53.4,50.2,30.21,South,188,0.0,0.0,89,0.00,,FEW250,0.00,VWS V14.01,2013-10-15 03:52:00,
2013-10-14 23:57:00,53.4,50.2,30.21,South,186,0.0,0.0,89,0.00,,FEW250,0.00,VWS V14.01,2013-10-15 03:57:00,